| time (UTC) | temp F | wind direction | speed knots | gust knots | rain 1hr in | rain 24hr in | rain mn in | humidity % | barometer mb |
| 20260904030026 | 83 | 175 | 1.7 | 4.3 | 0.00 | 0.00 | 0.00 | 23 | 1001.0 |
| 20260904024526 | 84 | 231 | 4.3 | 7.8 | 0.00 | 0.00 | 0.00 | 22 | 1000.9 |
| 20260904023023 | 84 | 150 | 5.2 | 11.3 | 0.00 | 0.00 | 0.00 | 21 | 1000.8 |
| 20260904021533 | 84 | 184 | 7.8 | 11.3 | 0.00 | 0.00 | 0.00 | 21 | 1000.9 |
| 20260904020014 | 85 | 199 | 7.0 | 11.3 | 0.00 | 0.00 | 0.00 | 20 | 1001.0 |
| 20260904014513 | 85 | 184 | 5.2 | 11.3 | 0.00 | 0.00 | 0.00 | 19 | 1001.1 |
| 20260904013011 | 86 | 198 | 7.8 | 13.0 | 0.00 | 0.00 | 0.00 | 18 | 1001.2 |
| 20260904011510 | 86 | 157 | 6.1 | 9.6 | 0.00 | 0.00 | 0.00 | 18 | 1001.2 |
| 20260904010013 | 87 | 188 | 5.2 | 15.6 | 0.00 | 0.00 | 0.00 | 18 | 1001.4 |
| 20260904004503 | 88 | 171 | 5.2 | 13.9 | 0.00 | 0.00 | 0.00 | 17 | 1001.5 |
| 20260904003012 | 88 | 173 | 9.6 | 15.6 | 0.00 | 0.00 | 0.00 | 17 | 1001.5 |
| 20260904001549 | 88 | 211 | 4.3 | 12.2 | 0.00 | 0.00 | 0.00 | 18 | 1001.5 |
| 20260904000045 | 89 | 200 | 4.3 | 15.6 | 0.00 | 0.00 | 0.00 | 16 | 1001.6 |
| 20260903234543 | 89 | 198 | 5.2 | 10.4 | 0.00 | 0.00 | 0.00 | 16 | 1001.6 |
| 20260903233054 | 89 | 188 | 7.8 | 11.3 | 0.00 | 0.00 | 0.00 | 16 | 1001.8 |
| 20260903231541 | 90 | 236 | 7.8 | 15.6 | 0.00 | 0.00 | 0.00 | 16 | 1002.0 |
| 20260903230048 | 90 | 232 | 7.8 | 17.4 | 0.00 | 0.00 | 0.00 | 15 | 1002.1 |
| 20260903224538 | 90 | 162 | 7.8 | 18.2 | 0.00 | 0.00 | 0.00 | 15 | 1002.2 |
| 20260903223039 | 90 | 213 | 2.6 | 17.4 | 0.00 | 0.00 | 0.00 | 15 | 1002.4 |
| 20260903221535 | 90 | 169 | 6.1 | 17.4 | 0.00 | 0.00 | 0.00 | 14 | 1002.6 |
| 20260903220042 | 90 | 265 | 5.2 | 8.7 | 0.00 | 0.00 | 0.00 | 14 | 1002.7 |
| 20260903214537 | 90 | 192 | 3.5 | 14.8 | 0.00 | 0.00 | 0.00 | 15 | 1002.8 |
| 20260903213032 | 89 | 178 | 6.1 | 19.1 | 0.00 | 0.00 | 0.00 | 16 | 1003.2 |
| 20260903211529 | 89 | 193 | 7.8 | 17.4 | 0.00 | 0.00 | 0.00 | 17 | 1003.3 |
| 20260903210029 | 89 | 168 | 2.6 | 18.2 | 0.00 | 0.00 | 0.00 | 17 | 1003.4 |
| 20260903204531 | 88 | 196 | 7.0 | 17.4 | 0.00 | 0.00 | 0.00 | 17 | 1003.8 |
| 20260903203027 | 89 | 157 | 5.2 | 10.4 | 0.00 | 0.00 | 0.00 | 17 | 1003.9 |
| 20260903201526 | 89 | 196 | 7.0 | 11.3 | 0.00 | 0.00 | 0.00 | 17 | 1004.1 |
| 20260903200025 | 88 | 190 | 7.0 | 17.4 | 0.00 | 0.00 | 0.00 | 16 | 1004.5 |
| 20260903194525 | 89 | 192 | 3.5 | 13.0 | 0.00 | 0.00 | 0.00 | 12 | 1004.6 |
| 20260903193022 | 88 | 182 | 4.3 | 13.9 | 0.00 | 0.00 | 0.00 | 12 | 1005.0 |
| 20260903190025 | 87 | 163 | 8.7 | 14.8 | 0.00 | 0.00 | 0.00 | 12 | 1005.5 |
| 20260903184518 | 86 | 175 | 5.2 | 9.6 | 0.00 | 0.00 | 0.00 | 13 | 1005.8 |
| 20260903183032 | 86 | 217 | 9.6 | 14.8 | 0.00 | 0.00 | 0.00 | 12 | 1006.0 |
| 20260903181529 | 86 | 201 | 4.3 | 7.8 | 0.00 | 0.00 | 0.00 | 12 | 1006.2 |
| 20260903180100 | 85 | 204 | 4.3 | 8.7 | 0.00 | 0.00 | 0.00 | 13 | 1006.6 |
| 20260903174641 | 85 | 227 | 3.5 | 8.7 | 0.00 | 0.00 | 0.00 | 13 | 1006.8 |
| 20260903173101 | 84 | 141 | 3.5 | 7.0 | 0.00 | 0.00 | 0.00 | 14 | 1006.7 |
| 20260903171557 | 82 | 252 | 4.3 | 7.8 | 0.00 | 0.00 | 0.00 | 15 | 1006.8 |
| 20260903170056 | 82 | 178 | 6.1 | 15.6 | 0.00 | 0.00 | 0.00 | 15 | 1007.0 |
| 20260903164553 | 81 | 146 | 5.2 | 9.6 | 0.00 | 0.00 | 0.00 | 17 | 1006.9 |
| 20260903163048 | 80 | 153 | 2.6 | 9.6 | 0.00 | 0.00 | 0.00 | 18 | 1006.9 |
| 20260903161545 | 78 | 165 | 0.9 | 6.1 | 0.00 | 0.00 | 0.00 | 20 | 1006.9 |
| 20260903160044 | 76 | 216 | 1.7 | 6.1 | 0.00 | 0.00 | 0.00 | 23 | 1006.9 |
| 20260903154536 | 73 | 89 | 0.0 | 2.6 | 0.00 | 0.00 | 0.00 | 31 | 1006.8 |
| 20260903153035 | 71 | 70 | 0.9 | 2.6 | 0.00 | 0.00 | 0.00 | 31 | 1006.9 |
| 20260903151535 | 67 | 70 | 0.0 | 0.9 | 0.00 | 0.00 | 0.00 | 43 | 1007.0 |
| 20260903150058 | 65 | 70 | 0.0 | 0.9 | 0.00 | 0.00 | 0.00 | 57 | 1007.0 |
| 20260903144536 | 62 | 70 | 0.0 | 1.7 | 0.00 | 0.00 | 0.00 | 55 | 1007.1 |
| 20260903143032 | 60 | 70 | 0.0 | 0.9 | 0.00 | 0.00 | 0.00 | 58 | 1006.7 |
| 20260903141536 | 58 | 70 | 0.0 | 0.0 | 0.00 | 0.00 | 0.00 | 66 | 1006.8 |
| 20260903140016 | 56 | 70 | 0.0 | 1.7 | 0.00 | 0.00 | 0.00 | 70 | 1006.4 |
| 20260903134628 | 55 | 70 | 1.7 | 3.5 | 0.00 | 0.00 | 0.00 | 65 | 1006.3 |
| 20260903133029 | 54 | 72 | 1.7 | 3.5 | 0.00 | 0.00 | 0.00 | 69 | 1006.1 |
| 20260903131509 | 54 | 58 | 0.0 | 1.7 | 0.00 | 0.00 | 0.00 | 71 | 1006.1 |
| 20260903130015 | 54 | 58 | 1.7 | 3.5 | 0.00 | 0.00 | 0.00 | 72 | 1006.0 |
| 20260903124602 | 54 | 57 | 0.0 | 0.0 | 0.00 | 0.00 | 0.00 | 70 | 1005.7 |
| 20260903123002 | 54 | 57 | 0.0 | 0.9 | 0.00 | 0.00 | 0.00 | 72 | 1005.6 |
| 20260903121502 | 54 | 57 | 0.0 | 0.9 | 0.00 | 0.00 | 0.00 | 74 | 1005.6 |
| 20260903120001 | 54 | 57 | 0.0 | 0.9 | 0.00 | 0.00 | 0.00 | 73 | 1005.3 |
| 20260903114558 | 54 | 57 | 0.0 | 0.0 | 0.00 | 0.00 | 0.00 | 73 | 1005.2 |
| 20260903113058 | 55 | 57 | 1.7 | 3.5 | 0.00 | 0.00 | 0.00 | 73 | 1005.1 |
| 20260903111553 | 55 | 57 | 0.9 | 1.7 | 0.00 | 0.00 | 0.00 | 72 | 1004.9 |
| 20260903110055 | 56 | 57 | 0.0 | 2.6 | 0.00 | 0.00 | 0.00 | 71 | 1004.9 |
| 20260903104549 | 56 | 57 | 0.0 | 0.9 | 0.00 | 0.00 | 0.00 | 72 | 1004.7 |
| 20260903103046 | 57 | 57 | 0.0 | 0.9 | 0.00 | 0.00 | 0.00 | 72 | 1004.6 |
| 20260903101543 | 57 | 57 | 0.9 | 2.6 | 0.00 | 0.00 | 0.00 | 64 | 1004.5 |
| 20260903100041 | 58 | 57 | 0.0 | 1.7 | 0.00 | 0.00 | 0.00 | 63 | 1004.4 |
| 20260903094547 | 59 | 57 | 0.0 | 0.0 | 0.00 | 0.00 | 0.00 | 60 | 1004.4 |
| 20260903093036 | 59 | 57 | 0.0 | 0.0 | 0.00 | 0.00 | 0.00 | 59 | 1004.3 |
| 20260903091606 | 59 | 57 | 0.0 | 0.0 | 0.00 | 0.00 | 0.00 | 61 | 1004.1 |
| 20260903090048 | 60 | 57 | 0.0 | 1.7 | 0.00 | 0.00 | 0.00 | 61 | 1004.0 |
| 20260903084547 | 61 | 57 | 0.0 | 2.6 | 0.00 | 0.00 | 0.00 | 52 | 1003.8 |
| 20260903083041 | 62 | 57 | 0.0 | 0.0 | 0.00 | 0.00 | 0.00 | 52 | 1003.8 |
| 20260903081540 | 62 | 57 | 0.0 | 0.0 | 0.00 | 0.00 | 0.00 | 53 | 1003.7 |
| 20260903080043 | 63 | 57 | 0.0 | 2.6 | 0.00 | 0.00 | 0.00 | 50 | 1003.6 |
| 20260903074541 | 63 | 57 | 0.0 | 0.0 | 0.00 | 0.00 | 0.00 | 55 | 1003.4 |
| 20260903073031 | 64 | 57 | 0.0 | 2.6 | 0.00 | 0.00 | 0.00 | 56 | 1003.3 |
| 20260903071528 | 65 | 57 | 1.7 | 5.2 | 0.00 | 0.00 | 0.00 | 46 | 1003.2 |
| 20260903070024 | 67 | 33 | 0.0 | 0.0 | 0.00 | 0.00 | 0.00 | 41 | 1003.0 |
| 20260903064521 | 68 | 33 | 0.0 | 0.0 | 0.00 | 0.00 | 0.00 | 36 | 1002.9 |
| 20260903063022 | 69 | 33 | 0.0 | 0.0 | 0.00 | 0.00 | 0.00 | 38 | 1003.0 |
| 20260903061521 | 70 | 33 | 0.0 | 3.5 | 0.00 | 0.00 | 0.00 | 35 | 1002.9 |
| 20260903060013 | 74 | 5 | 2.6 | 7.0 | 0.00 | 0.00 | 0.00 | 30 | 1002.7 |
| 20260903054510 | 74 | 236 | 0.0 | 2.6 | 0.00 | 0.00 | 0.00 | 27 | 1002.6 |
| 20260903053008 | 74 | 198 | 1.7 | 5.2 | 0.00 | 0.00 | 0.00 | 26 | 1002.6 |
| 20260903051508 | 75 | 184 | 3.5 | 7.0 | 0.00 | 0.00 | 0.00 | 25 | 1002.7 |
| 20260903050009 | 75 | 186 | 3.5 | 6.1 | 0.00 | 0.00 | 0.00 | 26 | 1002.7 |
| 20260903044506 | 77 | 171 | 2.6 | 5.2 | 0.00 | 0.00 | 0.00 | 24 | 1002.7 |
| 20260903043012 | 79 | 201 | 2.6 | 7.0 | 0.00 | 0.00 | 0.00 | 22 | 1002.7 |
| 20260903041505 | 80 | 215 | 3.5 | 8.7 | 0.00 | 0.00 | 0.00 | 19 | 1002.7 |
| 20260903040008 | 81 | 223 | 5.2 | 9.6 | 0.00 | 0.00 | 0.00 | 18 | 1002.6 |
| 20260903034527 | 82 | 227 | 4.3 | 12.2 | 0.00 | 0.00 | 0.00 | 18 | 1002.3 |
| 20260903033026 | 82 | 207 | 5.2 | 9.6 | 0.00 | 0.00 | 0.00 | 17 | 1002.4 |
| 20260903031526 | 83 | 217 | 5.2 | 10.4 | 0.00 | 0.00 | 0.00 | 17 | 1002.2 |